EW4055 Weather Reports


Display with metric or nautical units.
time (UTC)temp
F
wind
direction
speed
MPH
gust
MPH
rain 1hr
in
rain 24hr
in
rain mn
in
humidity
%
barometer
mb
20260906095810 88 99 1.0 5.0 0.00 0.00 0.00 43 1022.0
20260906095226 87 357 4.0 7.0 0.00 0.00 0.00 49 1022.0
20260906094925 88 351 2.0 6.0 0.00 0.00 0.00 46 1022.1
20260906092803 87 0 1.0 7.0 0.00 0.00 0.00 49 1022.0
20260906091804 86 351 2.0 7.0 0.00 0.00 0.00 53 1022.0
20260906090810 86 30 2.0 5.0 0.00 0.00 0.00 53 1022.0
20260906090632 85 20 3.0 7.0 0.00 0.00 0.00 57 1022.0
20260906084804 85 312 4.0 7.0 0.00 0.00 0.00 58 1021.9
20260906083802 84 354 4.0 7.0 0.00 0.00 0.00 58 1021.9
20260906082804 83 329 3.0 6.0 0.00 0.00 0.00 63 1021.9
20260906081803 82 305 5.0 7.0 0.00 0.00 0.00 63 1021.8
20260906081609 81 358 2.0 6.0 0.00 0.00 0.00 65 1021.8
20260906075807 81 302 4.0 7.0 0.00 0.00 0.00 66 1021.8
20260906075242 80 341 4.0 6.0 0.00 0.00 0.00 68 1021.6
20260906074925 81 320 4.0 9.0 0.00 0.00 0.00 67 1021.7
20260906072804 80 0 3.0 5.0 0.00 0.00 0.00 69 1021.5
20260906071806 79 331 2.0 4.0 0.00 0.00 0.00 70 1021.5
20260906071459 79 0 3.0 5.0 0.00 0.00 0.00 70 1021.5
20260906065806 79 324 3.0 5.0 0.00 0.00 0.00 71 1021.3
20260906065443 78 293 4.0 6.0 0.00 0.00 0.00 70 1021.3
20260906063806 78 329 4.0 6.0 0.00 0.00 0.00 72 1021.2
20260906062802 77 317 4.0 7.0 0.00 0.00 0.00 72 1021.1
20260906061804 77 336 4.0 9.0 0.00 0.00 0.00 71 1021.1
20260906061440 76 347 6.0 9.0 0.00 0.00 0.00 70 1021.0
20260906055801 76 331 3.0 6.0 0.00 0.00 0.00 67 1020.9
20260906054805 76 310 4.0 6.0 0.00 0.00 0.00 64 1020.8
20260906053803 76 292 4.0 6.0 0.00 0.00 0.00 63 1020.6
20260906052804 76 295 4.0 9.0 0.00 0.00 0.00 62 1020.6
20260906051805 76 336 6.0 9.0 0.00 0.00 0.00 60 1020.5
20260906050805 76 320 5.0 7.0 0.00 0.00 0.00 61 1020.4
20260906045803 76 331 5.0 7.0 0.00 0.00 0.00 62 1020.4
20260906045429 76 312 5.0 7.0 0.00 0.00 0.00 63 1020.3
20260906043807 76 357 5.0 11.0 0.00 0.00 0.00 63 1020.2
20260906042804 76 0 6.0 11.0 0.00 0.00 0.00 63 1020.1
20260906041803 76 321 7.0 11.0 0.00 0.00 0.00 63 1020.0
20260906040805 76 317 6.0 9.0 0.00 0.00 0.00 64 1019.8
20260906035806 76 353 6.0 10.0 0.00 0.00 0.00 62 1019.8
20260906035433 77 327 4.0 7.0 0.00 0.00 0.00 61 1019.7
20260906033929 76 350 4.0 7.0 0.00 0.00 0.00 62 1019.4
20260906033924 77 312 5.0 10.0 0.00 0.00 0.00 62 1019.5
20260906033827 77 334 5.0 9.0 0.00 0.00 0.00 61 1019.6
20260906030803 76 309 5.0 7.0 0.00 0.00 0.00 63 1019.4
20260906025804 76 345 4.0 7.0 0.00 0.00 0.00 63 1019.3
20260906024804 76 336 3.0 5.0 0.00 0.00 0.00 62 1019.3
20260906023804 77 330 2.0 3.0 0.00 0.00 0.00 62 1019.2
20260906022803 77 319 2.0 4.0 0.00 0.00 0.00 61 1019.3
20260906021806 77 331 3.0 5.0 0.00 0.00 0.00 62 1019.1
20260906020807 77 333 4.0 5.0 0.00 0.00 0.00 61 1019.1
20260906015803 77 305 3.0 4.0 0.00 0.00 0.00 62 1019.0
20260906014805 77 310 3.0 4.0 0.00 0.00 0.00 62 1019.1
20260906013804 77 302 2.0 2.0 0.00 0.00 0.00 61 1019.1
20260906012804 77 271 2.0 2.0 0.00 0.00 0.00 60 1019.1
20260906011805 78 250 1.0 3.0 0.00 0.00 0.00 59 1019.0
20260906010802 79 307 2.0 4.0 0.00 0.00 0.00 58 1019.1
20260906005804 79 274 2.0 4.0 0.00 0.00 0.00 57 1019.1
20260906004805 80 266 2.0 3.0 0.00 0.00 0.00 55 1019.0
20260906003804 80 258 2.0 4.0 0.00 0.00 0.00 54 1018.9
20260906002803 80 276 2.0 4.0 0.00 0.00 0.00 54 1018.9
20260906001807 80 281 3.0 4.0 0.00 0.00 0.00 55 1018.9
20260906001456 80 272 3.0 5.0 0.00 0.00 0.00 55 1018.9
20260905235806 80 282 3.0 6.0 0.00 0.00 0.00 55 1018.9
20260905234805 80 285 3.0 5.0 0.00 0.00 0.00 56 1018.9
20260905233803 79 283 3.0 4.0 0.00 0.00 0.00 56 1018.9
20260905232805 79 279 3.0 4.0 0.00 0.00 0.00 56 1018.9
20260905231802 78 258 2.0 3.0 0.00 0.00 0.00 56 1018.9
20260905230804 78 257 2.0 3.0 0.00 0.00 0.00 55 1018.9
20260905225805 78 250 2.0 2.0 0.00 0.00 0.00 55 1019.0
20260905224804 78 261 2.0 3.0 0.00 0.00 0.00 56 1019.1
20260905223804 77 207 2.0 3.0 0.00 0.00 0.00 57 1019.0
20260905222804 77 207 1.0 1.0 0.00 0.00 0.00 56 1019.0
20260905221811 78 207 0.0 0.0 0.00 0.00 0.00 56 1019.1
20260905220805 77 207 0.0 0.0 0.00 0.00 0.00 56 1019.0
20260905215807 77 207 0.0 0.0 0.00 0.00 0.00 56 1018.9
20260905214807 77 207 0.0 0.0 0.00 0.00 0.00 56 1018.9
20260905213805 77 207 0.0 0.0 0.00 0.00 0.00 57 1018.9
20260905213350 77 207 0.0 0.0 0.00 0.00 0.00 58 1018.7
20260905211805 77 207 0.0 1.0 0.00 0.00 0.00 58 1018.8
20260905210759 77 207 0.0 2.0 0.00 0.00 0.00 58 1018.8
20260905205801 77 207 0.0 2.0 0.00 0.00 0.00 57 1018.7
20260905204756 77 173 0.0 2.0 0.00 0.00 0.00 57 1018.7
20260905203755 78 185 2.0 4.0 0.00 0.00 0.00 57 1018.7
20260905202753 78 128 2.0 5.0 0.00 0.00 0.00 57 1018.6
20260905202453 78 140 2.0 6.0 0.00 0.00 0.00 56 1018.7
20260905201430 78 204 2.0 4.0 0.00 0.00 0.00 56 1018.7
20260905195749 78 193 1.0 4.0 0.00 0.00 0.00 55 1018.6
20260905194749 79 151 1.0 4.0 0.00 0.00 0.00 54 1018.6
20260905193747 79 111 1.0 3.0 0.00 0.00 0.00 54 1018.5
20260905192747 80 238 0.0 5.0 0.00 0.00 0.00 53 1018.5
20260905191747 80 113 2.0 6.0 0.00 0.00 0.00 52 1018.5
20260905191312 81 125 2.0 6.0 0.00 0.00 0.00 50 1018.3
20260905190926 80 182 0.0 3.0 0.00 0.00 0.00 51 1018.4
20260905184751 81 109 3.0 6.0 0.00 0.00 0.00 50 1018.2
20260905184454 81 120 4.0 6.0 0.00 0.00 0.00 50 1018.2
20260905182745 82 85 3.0 7.0 0.00 0.00 0.00 49 1018.1
20260905181744 82 94 5.0 7.0 0.00 0.00 0.00 49 1017.9
20260905180744 82 93 5.0 7.0 0.00 0.00 0.00 48 1017.9
20260905175742 83 89 5.0 10.0 0.00 0.00 0.00 48 1017.8
20260905175235 83 92 4.0 7.0 0.00 0.00 0.00 46 1017.6
20260905174903 83 100 5.0 9.0 0.00 0.00 0.00 47 1017.7
20260905172741 84 94 4.0 10.0 0.00 0.00 0.00 46 1017.4
20260905171742 84 90 7.0 11.0 0.00 0.00 0.00 46 1017.4
20260905170737 85 96 6.0 11.0 0.00 0.00 0.00 46 1017.4
20260905170244 85 86 5.0 12.0 0.00 0.00 0.00 45 1017.4
20260905165851 85 106 6.0 11.0 0.00 0.00 0.00 45 1017.4
20260905163739 86 69 8.0 13.0 0.00 0.00 0.00 44 1017.2
20260905162736 86 94 5.0 9.0 0.00 0.00 0.00 45 1017.3
20260905161736 87 92 4.0 10.0 0.00 0.00 0.00 44 1017.3
20260905160733 87 123 7.0 10.0 0.00 0.00 0.00 43 1017.2
20260905160259 88 76 3.0 10.0 0.00 0.00 0.00 43 1017.2
20260905155900 88 99 3.0 10.0 0.00 0.00 0.00 43 1017.3
20260905153732 88 75 5.0 10.0 0.00 0.00 0.00 41 1017.2
20260905152734 88 30 4.0 12.0 0.00 0.00 0.00 40 1017.2
20260905151737 88 94 4.0 13.0 0.00 0.00 0.00 42 1017.1
20260905151425 88 42 5.0 14.0 0.00 0.00 0.00 41 1017.2
20260905150437 88 69 6.0 13.0 0.00 0.00 0.00 42 1017.2
20260905145416 88 51 8.0 14.0 0.00 0.00 0.00 42 1017.2
20260905144419 88 58 8.0 16.0 0.00 0.00 0.00 42 1017.3
20260905142729 89 87 5.0 13.0 0.00 0.00 0.00 41 1017.3
20260905141731 89 62 7.0 15.0 0.00 0.00 0.00 41 1017.3
20260905140727 90 319 7.0 12.0 0.00 0.00 0.00 40 1017.2
20260905135728 90 17 7.0 16.0 0.00 0.00 0.00 40 1017.3
20260905134729 91 55 7.0 14.0 0.00 0.00 0.00 39 1017.3
20260905133725 92 20 7.0 15.0 0.00 0.00 0.00 38 1017.4
20260905132728 94 25 5.0 12.0 0.00 0.00 0.00 35 1017.5
20260905132408 98 305 6.0 10.0 0.00 0.00 0.00 30 1017.5
20260905130724 98 279 2.0 5.0 0.00 0.00 0.00 26 1017.3
20260905125723 98 296 4.0 6.0 0.00 0.00 0.00 25 1017.4
20260905124723 98 268 3.0 6.0 0.00 0.00 0.00 25 1017.4
20260905123719 99 271 4.0 10.0 0.00 0.00 0.00 25 1017.4
20260905122716 100 223 2.0 7.0 0.00 0.00 0.00 24 1017.5
20260905121710 100 226 2.0 10.0 0.00 0.00 0.00 24 1017.6
20260905120708 99 179 4.0 12.0 0.00 0.00 0.00 23 1017.7
20260905115707 100 210 3.0 13.0 0.00 0.00 0.00 24 1017.7
20260905114705 99 251 3.0 7.0 0.00 0.00 0.00 23 1017.8
20260905113708 99 210 3.0 11.0 0.00 0.00 0.00 24 1017.7
20260905113335 99 265 3.0 9.0 0.00 0.00 0.00 25 1018.0
20260905111704 99 283 4.0 9.0 0.00 0.00 0.00 25 1018.0
20260905110708 98 228 2.0 11.0 0.00 0.00 0.00 25 1018.0
20260905110440 97 265 4.0 16.0 0.00 0.00 0.00 25 1017.9
20260905104702 96 283 5.0 13.0 0.00 0.00 0.00 24 1018.0
20260905103702 96 269 7.0 12.0 0.00 0.00 0.00 26 1017.9
20260905102706 96 286 6.0 16.0 0.00 0.00 0.00 24 1017.7
20260905101704 96 288 8.0 14.0 0.00 0.00 0.00 25 1017.8
20260905100703 96 283 3.0 14.0 0.00 0.00 0.00 27 1017.9